Printer-friendly version

IAU Minor Planet Center

Minor Planet Center

MPEC 2005-M50 : 2005 MX1

The following Minor Planet Electronic Circular may be linked-to from your own Web pages, but must not otherwise be redistributed electronically.


Read MPEC 2005-M49 Read MPEC 2005-M51


M.P.E.C. 2005-M50                                Issued 2005 June 26, 12:57 UT

     The Minor Planet Electronic Circulars contain information on unusual
         minor planets and routine data on comets.  They are published
   on behalf of Commission 20 of the International Astronomical Union by the
          Minor Planet Center, Smithsonian Astrophysical Observatory,
                          Cambridge, MA 02138, U.S.A.

                  Supported in part by the Brinson Foundation
             Prepared using the Tamkin Foundation Computer Network

                              MPC@CFA.HARVARD.EDU
          URL http://cfa-www.harvard.edu/iau/mpc.html  ISSN 1523-6714

                                   2005 MX1

Observations:
     K05M01X* C2005 06 21.33764 17 46 42.72 +06 36 14.5          18.4   EM050644
     K05M01X  C2005 06 21.35870 17 46 42.10 +06 37 00.6          18.1   EM050644
     K05M01X  C2005 06 21.37976 17 46 41.48 +06 37 46.6          17.7   EM050644
     K05M01X  C2005 06 23.39692 17 46 01.67 +07 52 44.9          17.5   EM050644
     K05M01X  C2005 06 23.40732 17 46 01.37 +07 53 08.3          17.5   EM050644
     K05M01X  C2005 06 23.42093 17 46 00.97 +07 53 38.9          17.4   EM050644
     K05M01X  C2005 06 24.94851 17 45 31.81 +08 52 07.3          18.0 R EM050J87
     K05M01X  C2005 06 24.95432 17 45 31.57 +08 52 20.4          17.7 R EM050J87
     K05M01X  C2005 06 24.96014 17 45 31.45 +08 52 34.5          18.2 R EM050J87
     K05M01X  C2005 06 25.03765 17 45 28.95 +08 55 34.5          17.7 R EM050213
     K05M01X  C2005 06 25.03870 17 45 28.93 +08 55 36.8          17.7 R EM050213
     K05M01X  C2005 06 25.08195 17 45 29.66 +08 57 15.8          17.6 R EM050932
     K05M01X  C2005 06 25.08195 17 45 27.76 +08 57 18.0          18.2 R EM050J87
     K05M01X  C2005 06 25.09938 17 45 28.33 +08 58 31.3          18.2 R EM050I77
     K05M01X  C2005 06 25.10576 17 45 28.09 +08 58 46.3          18.4 R EM050I77
     K05M01X  C2005 06 25.10833 17 45 28.88 +08 58 19.4          18.5 R EM050932
     K05M01X  C2005 06 25.10833 17 45 27.05 +08 58 19.2          18.6 R EM050J87
     K05M01X  C2005 06 25.11212 17 45 27.89 +08 59 01.3          18.4 R EM050I77
     K05M01X  C2005 06 25.12570 17 45 28.35 +08 58 59.8          18.6 R EM050932
     K05M01X  C2005 06 25.12570 17 45 26.50 +08 58 59.8          18.7 R EM050J87
     K05M01X  C2005 06 25.15875 17 45 27.98 +09 00 18.0          18.3 R EM050734
     K05M01X  C2005 06 25.16316 17 45 27.83 +09 00 28.5          18.4 R EM050734
     K05M01X  C2005 06 25.16463 17 45 27.79 +09 00 31.7          18.3 R EM050734
     K05M01X  C2005 06 25.16736 17 45 27.72 +09 00 38.1          18.4 R EM050734
     K05M01X  C2005 06 25.17473 17 45 27.50 +09 00 55.3          18.0 R EM050734
     K05M01X  C2005 06 25.23596 17 45 26.30 +09 03 20.6          18.5 R EM050673
     K05M01X  C2005 06 25.24375 17 45 26.06 +09 03 39.5                 EM050673
     K05M01X  C2005 06 25.25671 17 45 25.67 +09 04 09.6                 EM050673
     K05M01X  C2005 06 25.26898 17 45 25.26 +09 04 38.4                 EM050673
     K05M01X  C2005 06 25.34433 17 45 22.50 +09 07 35.2          17.4 R EM050H06
     K05M01X  C2005 06 25.35397 17 45 22.22 +09 07 58.4          18.2 R EM050H06
     K05M01X  C2005 06 25.88204 17 45 12.57 +09 28 35.7          17.8 V EM050A50
     K05M01X  C2005 06 25.88351 17 45 12.58 +09 28 40.6          17.8 V EM050A50
     K05M01X  C2005 06 25.88642 17 45 12.31 +09 28 46.4          18.0 V EM050A50
     K05M01X  C2005 06 25.88935 17 45 12.30 +09 28 52.8          18.4 V EM050A50
     K05M01X  C2005 06 25.89081 17 45 12.25 +09 28 57.6          17.4 V EM050A50
     K05M01X  C2005 06 25.98568 17 45 10.16 +09 32 40.6          18.3 R EM050A06
     K05M01X  C2005 06 25.99147 17 45 09.99 +09 32 54.3          18.3 R EM050A06
     K05M01X  C2005 06 25.99726 17 45 09.80 +09 33 08.0          18.2 R EM050A06
     K05M01X  C2005 06 26.16538 17 45 07.45 +09 39 49.1          17.7 R EM050734
     K05M01X  C2005 06 26.16685 17 45 07.39 +09 39 52.8          18.2 R EM050734
     K05M01X  C2005 06 26.16832 17 45 07.34 +09 39 56.5          17.8 R EM050734
     K05M01X  C2005 06 26.16979 17 45 07.30 +09 40 00.1          17.8 R EM050734
     K05M01X  C2005 06 26.17126 17 45 07.27 +09 40 03.5          18.2 R EM050734
     K05M01X  C2005 06 26.25903 17 45 04.97 +09 43 36.4          17.6 R EM050854
     K05M01X  C2005 06 26.26095 17 45 04.94 +09 43 41.1          17.6 R EM050854
     K05M01X  C2005 06 26.26191 17 45 04.93 +09 43 43.3          17.6 R EM050854
     K05M01X  C2005 06 26.29814 17 45 05.26 +09 45 14.4          17.6 R EM050F65
     K05M01X  C2005 06 26.30502 17 45 05.03 +09 45 31.1          17.8 R EM050F65
     K05M01X  C2005 06 26.31047 17 45 04.87 +09 45 44.2          17.7 R EM050F65

Observer details:
213 Observatorio Montcabre.  Observer R. Naves.  Measurer M. Campas.  0.30-m
    f/5.9 Schmidt-Cassegrain + CCD.
644 Palomar Mountain/NEAT.  Observers R. Bambery, M. Hicks, K. Lawrence,
    E. Helin, R. Thicksten.  1.2-m Schmidt + CCD.
673 Table Mountain Observatory, Wrightwood.  Observer J. Young.  0.6-m
    reflector + CCD.
734 Farpoint Observatory.  Observers J. Burgardt, G. Hug, D. Tibbets.
    Measurers B. Martin, R. Valentine.  0.7-m reflector + CCD.
854 Sabino Canyon Observatory, Tucson.  Observer J. E. McGaha.  0.36-m f/10.0
    Schmidt-Cassegrain + CCD.
932 John J. McCarthy Obs., New Milford.  Observers S. Riley, M. Robson.
    Measurer M. Robson.  0.4-m f/6.5 Schmidt-Cassegrain + CCD.
A06 Mataro.  Observers F. Garcia, E. Cortes.  Measurer E. Cortes.  0.25-m
    f/3.6 Schmidt-Cassegrain + CCD.
A50 Andrushivka Astronomical Observatory.  Observer Y. Ivashchenko.  0.6-m
    f/2.0 reflector + CCD.
F65 Haleakala-Faulkes Telescope North.  Observer J. Bedient.  2.0-m
    Ritchey-Chretien + CCD.
H06 New Mexico Skies Observatory.  Observer R. Hutsebaut.  0.25-m reflector
    + CCD.
I77 CEAMIG-REA Observatory, Belo Horizonte.  Observers C. Jacques, E. Pimentel.
    Measurer C. Jacques.  0.30-m f/3.0 Schmidt-Cassegrain + CCD.
J87 La Canada.  Observer J. Lacruz.  0.30-m f/10 Schmidt-Cassegrain + CCD.

Orbital elements:
2005 MX1
Epoch 2005 June 19.0 TT = JDT 2453540.5                 MPC
M 339.37357              (2000.0)            P               Q
n   0.30591757     Peri.  139.86640     +0.90793023     +0.41789654
a   2.1813889      Node   195.52438     -0.40864477     +0.86567412
e   0.5352608      Incl.    6.87070     -0.09312442     +0.27562800
P   3.22           H   19.5           G   0.15
From 42 observations 2005 June 21-26.

Ephemeris:
2005 MX1                 a,e,i = 2.18, 0.54, 7                   q = 1.0138
Date    TT    R. A. (2000) Decl.     Delta      r     Elong.  Phase     V
2005 06 19    17 47.44   +05 12.8    0.308    1.295   151.4    22.1    18.6
2005 06 24    17 45.84   +08 15.9    0.279    1.261   147.7    25.5    18.4
2005 06 29    17 44.15   +11 35.0    0.252    1.228   143.3    29.7    18.2
2005 07 04    17 42.61   +15 11.3    0.229    1.197   138.3    34.4    18.1
2005 07 09    17 41.53   +19 07.1    0.207    1.167   132.9    39.7    18.0
2005 07 14    17 41.34   +23 26.8    0.187    1.139   127.3    45.2    17.9
2005 07 19    17 42.54   +28 17.9    0.168    1.113   121.5    51.1    17.8
2005 07 24    17 45.74   +33 51.4    0.151    1.090   115.8    57.1    17.6
2005 07 29    17 51.97   +40 20.9    0.135    1.069   110.0    63.2    17.5
2005 08 03    18 03.29   +48 01.7    0.121    1.051   104.3    69.3    17.5
2005 08 08    18 24.71   +57 04.2    0.110    1.037    98.9    75.1    17.4

2005 08 09    18 31.17   +59 02.0    0.108    1.034    97.9    76.2    17.4
2005 08 10    18 38.73   +61 02.3    0.106    1.032    96.9    77.2    17.4
2005 08 11    18 47.68   +63 04.5    0.104    1.030    96.0    78.2    17.4
2005 08 12    18 58.37   +65 07.7    0.103    1.028    95.1    79.2    17.4
2005 08 13    19 11.28   +67 10.9    0.101    1.026    94.2    80.1    17.4
2005 08 14    19 27.04   +69 12.3    0.0998   1.024    93.4    81.0    17.4
2005 08 15    19 46.5    +71 09.6    0.0987   1.022    92.6    81.8    17.4
2005 08 16    20 10.6    +72 59.8    0.0978   1.021    91.9    82.6    17.4
2005 08 17    20 40.6    +74 38.2    0.0970   1.019    91.3    83.2    17.4
2005 08 18    21 17.4    +75 59.1    0.0964   1.018    90.7    83.8    17.4
2005 08 19    22 01.0    +76 55.6    0.0960   1.017    90.2    84.4    17.4
2005 08 20    22 49.7    +77 21.2    0.0958   1.016    89.8    84.8    17.4
2005 08 21    23 39.4    +77 12.3    0.0958   1.015    89.5    85.1    17.4
2005 08 22    00 26.0    +76 30.1    0.0960   1.015    89.2    85.3    17.4
2005 08 23    01 06.4    +75 19.8    0.0964   1.014    89.1    85.5    17.4
2005 08 24    01 39.8    +73 48.5    0.0970   1.014    89.0    85.5    17.5
2005 08 25    02 06.8    +72 02.6    0.0977   1.014    89.0    85.5    17.5
2005 08 26    02 28.6    +70 07.3    0.0986   1.014    89.1    85.3    17.5
2005 08 27    02 46.16   +68 06.3    0.0997   1.014    89.2    85.1    17.5

2005 08 28    03 00.52   +66 02.4    0.101    1.014    89.5    84.8    17.5
2005 09 02    03 43.93   +55 53.2    0.109    1.018    91.7    82.1    17.6
2005 09 07    04 04.80   +46 57.3    0.121    1.026    95.2    78.0    17.7
2005 09 12    04 16.29   +39 30.3    0.134    1.037    99.5    73.1    17.8
2005 09 17    04 22.83   +33 21.5    0.149    1.052   104.4    67.8    17.9

2005 09 27    04 27.08   +23 57.8    0.180    1.091   115.0    56.4    18.0
2005 10 07    04 23.02   +17 08.1    0.213    1.140   126.8    44.6    18.1
2005 10 17    04 13.19   +12 02.6    0.251    1.198   139.2    32.9    18.3
2005 10 27    04 00.02   +08 21.3    0.296    1.262   151.5    22.1    18.4
2005 11 06    03 46.08   +05 55.7    0.352    1.330   161.9    13.4    18.6
2005 11 16    03 33.99   +04 38.4    0.421    1.401   165.8    10.0    19.0
2005 11 26    03 25.32   +04 16.4    0.506    1.474   160.5    12.9    19.6
2005 12 06    03 20.64   +04 35.3    0.607    1.548   151.9    17.4    20.3
2005 12 16    03 19.91   +05 22.2    0.723    1.622   143.1    21.4    20.9
2005 12 26    03 22.63   +06 26.1    0.853    1.695   134.5    24.4    21.4
2006 01 05    03 28.24   +07 39.5    0.996    1.767   126.4    26.6    21.9

Brian G. Marsden             (C) Copyright 2005 MPC           M.P.E.C. 2005-M50

Read MPEC 2005-M49 Read MPEC 2005-M51


Our Web policy. Index to the CBAT/MPC/ICQ pages.


Valid HTML 4.01!